This is the latest recevied weather packets stored in our database for station/object XE2KK-10. If no packets are shown the sender has not sent any weather packets the latest 10 day(s).
| Time | Temp. | Humidity | Pressure | Rain* | Wind** | Luminosity | Snow |
|---|---|---|---|---|---|---|---|
| 1777954153 | 26.11° C | 57% | 1010 hPa | 0 mm | - | 0 W/m² | - |
| 1777953853 | 26.11° C | 57% | 1010 hPa | 0 mm | - | 0 W/m² | - |
| 1777953553 | 26.11° C | 57% | 1009.9 hPa | 0 mm | - | 0 W/m² | - |
| 1777943652 | 28.89° C | 44% | 1009.2 hPa | 0 mm | - | 4 W/m² | - |
| 1777941553 | 30° C | 41% | 1008.9 hPa | 0 mm | - | 47 W/m² | - |
| 1777940353 | 30° C | 40% | 1008.8 hPa | 0 mm | - | 75 W/m² | - |
| 1777940053 | 30.56° C | 40% | 1009.1 hPa | 0 mm | - | 79 W/m² | - |
| 1777939753 | 30.56° C | 40% | 1009 hPa | 0 mm | - | 92 W/m² | - |
| 1777938553 | 30.56° C | 40% | 1009.2 hPa | 0 mm | - | 121 W/m² | - |
| 1777938253 | 30.56° C | 40% | 1009.2 hPa | 0 mm | - | 113 W/m² | - |
| 1777934653 | 31.11° C | 39% | 1009.8 hPa | 0 mm | - | 336 W/m² | - |
| 1777934353 | 30.56° C | 40% | 1009.7 hPa | 0 mm | - | 306 W/m² | - |
| 1777933153 | 30.56° C | 40% | 1009.9 hPa | 0 mm | - | 451 W/m² | - |
| 1777932553 | 30.56° C | 40% | 1009.9 hPa | 0 mm | - | 262 W/m² | - |
| 1777931053 | 30° C | 41% | 1010.4 hPa | 0 mm | - | 482 W/m² | - |
| 1777930753 | 30° C | 41% | 1010.3 hPa | 0 mm | - | 468 W/m² | - |
| 1777929853 | 30° C | 41% | 1010.7 hPa | 0 mm | - | 513 W/m² | - |
| 1777929553 | 29.44° C | 42% | 1010.5 hPa | 0 mm | - | 640 W/m² | - |
| 1777929253 | 29.44° C | 42% | 1010.7 hPa | 0 mm | - | 512 W/m² | - |
| 1777928953 | 29.44° C | 43% | 1010.8 hPa | 0 mm | - | 338 W/m² | - |
| 1777927457 | 28.89° C | 43% | 1011.3 hPa | 0 mm | - | 608 W/m² | - |
| 1777925353 | 28.33° C | 45% | 1011.9 hPa | 0 mm | - | 514 W/m² | - |
| 1777924152 | 27.78° C | 46% | 1012.1 hPa | 0 mm | - | 352 W/m² | - |
| 1777923553 | 28.33° C | 45% | 1012.2 hPa | 0 mm | - | 355 W/m² | - |
| 1777923252 | 27.22° C | 45% | 1012.2 hPa | 0 mm | - | 367 W/m² | - |
* Rain latest hour (hover to see other rain measurements)
** Current wind speed in m/s (hover to see current wind gust speed)